TimeEDT,TemperatureF,Dew PointF,Humidity,Sea Level PressureIn,VisibilityMPH,Wind Direction,Wind SpeedMPH,Gust SpeedMPH,PrecipitationIn,Events,Conditions,WindDirDegrees,DateUTC
12:15 AM,64.4,64.4,100,29.94,4.0,Calm,Calm,-,N/A,,Mostly Cloudy,0,2013-07-25 04:15:00
12:35 AM,64.6,64.6,100,29.95,1.5,Calm,Calm,-,N/A,,Overcast,0,2013-07-25 04:35:00
12:55 AM,64.9,64.8,99,29.95,2.0,Calm,Calm,-,N/A,,Overcast,0,2013-07-25 04:55:00
1:15 AM,64.4,64.4,100,29.95,0.5,Calm,Calm,-,N/A,Fog,Fog,0,2013-07-25 05:15:00
1:35 AM,64.0,63.9,99,29.95,0.8,Calm,Calm,-,N/A,,Overcast,0,2013-07-25 05:35:00
1:55 AM,64.2,64.0,99,29.94,3.0,Calm,Calm,-,N/A,,Overcast,0,2013-07-25 05:55:00
2:15 AM,63.7,63.5,99,29.94,3.0,Calm,Calm,-,N/A,,Overcast,0,2013-07-25 06:15:00
2:35 AM,63.7,63.5,99,29.94,4.0,Calm,Calm,-,N/A,,Overcast,0,2013-07-25 06:35:00
2:55 AM,63.7,63.7,100,29.95,0.5,Calm,Calm,-,N/A,Fog,Fog,0,2013-07-25 06:55:00
3:15 AM,63.9,63.9,100,29.94,0.2,Calm,Calm,-,N/A,Fog,Fog,0,2013-07-25 07:15:00
3:35 AM,63.5,63.5,100,29.94,0.2,Calm,Calm,-,N/A,Fog,Fog,0,2013-07-25 07:35:00
3:55 AM,63.5,63.5,100,29.94,1.0,Calm,Calm,-,N/A,,Overcast,0,2013-07-25 07:55:00
4:15 AM,62.8,62.8,100,29.94,0.8,Calm,Calm,-,N/A,,Overcast,0,2013-07-25 08:15:00
4:35 AM,63.0,63.0,100,29.94,0.2,Calm,Calm,-,N/A,Fog,Fog,0,2013-07-25 08:35:00
4:55 AM,61.9,61.9,100,29.94,0.5,Calm,Calm,-,N/A,Fog,Fog,0,2013-07-25 08:55:00
5:15 AM,61.9,61.9,100,29.94,1.0,Calm,Calm,-,N/A,,Overcast,0,2013-07-25 09:15:00
5:35 AM,61.7,61.5,99,29.94,2.0,Calm,Calm,-,N/A,,Overcast,0,2013-07-25 09:35:00
5:55 AM,61.0,60.8,99,29.94,5.0,Calm,Calm,-,N/A,,Overcast,0,2013-07-25 09:55:00
6:15 AM,61.2,61.0,99,29.95,0.2,Calm,Calm,-,N/A,Fog,Fog,0,2013-07-25 10:15:00
6:35 AM,60.8,60.4,99,29.96,1.0,Calm,Calm,-,N/A,,Overcast,0,2013-07-25 10:35:00
6:55 AM,61.2,61.2,100,29.96,0.2,Calm,Calm,-,N/A,Fog,Fog,0,2013-07-25 10:55:00
7:15 AM,60.8,60.8,100,29.97,1.5,Calm,Calm,-,N/A,,Overcast,0,2013-07-25 11:15:00
7:35 AM,60.8,60.8,100,29.98,0.5,Calm,Calm,-,N/A,Fog,Fog,0,2013-07-25 11:35:00
7:55 AM,61.7,61.7,100,29.99,0.2,Calm,Calm,-,N/A,Fog,Fog,0,2013-07-25 11:55:00
8:15 AM,62.1,62.1,100,29.99,0.2,Calm,Calm,-,N/A,Fog,Fog,0,2013-07-25 12:15:00
8:35 AM,62.6,62.6,100,29.99,0.2,Calm,Calm,-,N/A,Fog,Fog,0,2013-07-25 12:35:00
8:55 AM,63.0,62.8,99,30.00,0.8,Calm,Calm,-,N/A,,Overcast,0,2013-07-25 12:55:00
9:15 AM,64.6,64.0,98,30.00,5.0,Calm,Calm,-,N/A,,Mostly Cloudy,0,2013-07-25 13:15:00
9:35 AM,66.4,65.1,96,30.00,10.0,Calm,Calm,-,N/A,,Scattered Clouds,0,2013-07-25 13:35:00
9:55 AM,68.2,65.5,91,30.00,10.0,Calm,Calm,-,N/A,,Clear,0,2013-07-25 13:55:00
10:15 AM,70.2,64.6,82,29.99,10.0,Calm,Calm,-,N/A,,Clear,0,2013-07-25 14:15:00
10:35 AM,74.3,64.4,71,29.99,10.0,Calm,Calm,-,N/A,,Clear,0,2013-07-25 14:35:00
10:55 AM,74.7,65.3,73,29.99,10.0,Calm,Calm,-,N/A,,Clear,0,2013-07-25 14:55:00
11:15 AM,75.7,66.2,72,29.99,10.0,SSW,3.5,-,N/A,,Clear,200,2013-07-25 15:15:00
11:35 AM,76.5,66.0,70,29.99,10.0,Calm,Calm,-,N/A,,Clear,0,2013-07-25 15:35:00
11:55 AM,78.3,64.8,63,29.99,10.0,Calm,Calm,-,N/A,,Clear,0,2013-07-25 15:55:00
12:15 PM,79.2,63.5,59,29.99,10.0,Calm,Calm,-,N/A,,Clear,0,2013-07-25 16:15:00
12:35 PM,79.5,64.2,59,30.00,10.0,WSW,4.6,-,N/A,,Clear,240,2013-07-25 16:35:00
12:55 PM,80.2,63.3,56,30.00,10.0,West,5.8,-,N/A,,Clear,260,2013-07-25 16:55:00
1:15 PM,80.4,67.5,65,30.00,10.0,WNW,5.8,-,N/A,,Clear,300,2013-07-25 17:15:00
1:35 PM,81.1,68.4,65,30.00,10.0,West,5.8,-,N/A,,Clear,270,2013-07-25 17:35:00
1:55 PM,82.2,65.7,57,30.00,10.0,WSW,6.9,-,N/A,,Clear,250,2013-07-25 17:55:00
2:15 PM,81.7,64.8,56,30.00,10.0,West,8.1,-,N/A,,Clear,270,2013-07-25 18:15:00
2:35 PM,82.4,62.1,50,29.99,10.0,WSW,5.8,-,N/A,,Clear,240,2013-07-25 18:35:00
2:55 PM,83.5,63.9,51,29.99,10.0,WSW,5.8,-,N/A,,Clear,240,2013-07-25 18:55:00
3:15 PM,83.5,63.7,51,29.99,10.0,WSW,4.6,-,N/A,,Clear,240,2013-07-25 19:15:00
3:35 PM,83.3,64.4,53,29.99,10.0,West,4.6,-,N/A,,Clear,280,2013-07-25 19:35:00
3:55 PM,84.2,63.3,49,29.99,10.0,WSW,5.8,-,N/A,,Clear,240,2013-07-25 19:55:00
4:15 PM,84.4,63.3,49,29.99,10.0,WSW,6.9,-,N/A,,Clear,240,2013-07-25 20:15:00
4:35 PM,81.7,65.3,57,29.99,10.0,West,8.1,-,N/A,,Scattered Clouds,280,2013-07-25 20:35:00
4:55 PM,81.3,66.2,60,30.00,10.0,West,6.9,-,N/A,,Scattered Clouds,280,2013-07-25 20:55:00
5:15 PM,83.1,66.6,57,29.99,10.0,Calm,Calm,-,N/A,,Scattered Clouds,0,2013-07-25 21:15:00
5:35 PM,78.8,67.5,68,29.99,10.0,NNE,3.5,-,N/A,,Scattered Clouds,20,2013-07-25 21:35:00
5:55 PM,80.8,66.9,63,30.00,10.0,NE,8.1,-,N/A,,Scattered Clouds,40,2013-07-25 21:55:00
6:15 PM,81.5,66.2,60,30.00,10.0,North,8.1,16.1,N/A,,Mostly Cloudy,360,2013-07-25 22:15:00
6:35 PM,80.6,65.7,60,30.00,10.0,NNE,9.2,-,N/A,,Scattered Clouds,30,2013-07-25 22:35:00
6:55 PM,80.2,64.9,59,30.01,10.0,NE,6.9,-,N/A,,Scattered Clouds,40,2013-07-25 22:55:00
7:15 PM,79.7,64.8,60,30.01,10.0,NNE,10.4,16.1,N/A,,Mostly Cloudy,30,2013-07-25 23:15:00
7:35 PM,78.8,63.7,60,30.02,10.0,NE,5.8,-,N/A,,Mostly Cloudy,50,2013-07-25 23:35:00
7:55 PM,77.9,64.2,63,30.03,10.0,ENE,6.9,-,N/A,,Mostly Cloudy,70,2013-07-25 23:55:00
8:15 PM,76.6,63.3,63,30.04,10.0,Calm,Calm,-,N/A,,Overcast,0,2013-07-26 00:15:00
8:35 PM,75.4,62.6,64,30.04,10.0,NE,4.6,-,N/A,,Mostly Cloudy,50,2013-07-26 00:35:00
8:55 PM,72.9,63.0,71,30.04,10.0,SSE,4.6,-,N/A,,Clear,160,2013-07-26 00:55:00
9:15 PM,71.1,63.7,77,30.05,10.0,Calm,Calm,-,N/A,,Clear,0,2013-07-26 01:15:00
9:35 PM,69.1,63.7,83,30.05,10.0,Calm,Calm,-,N/A,,Clear,0,2013-07-26 01:35:00
9:55 PM,66.6,63.3,89,30.06,10.0,Calm,Calm,-,N/A,,Clear,0,2013-07-26 01:55:00
10:15 PM,67.1,63.5,88,30.07,10.0,Calm,Calm,-,N/A,,Clear,0,2013-07-26 02:15:00
10:35 PM,65.8,63.3,92,30.08,10.0,Calm,Calm,-,N/A,,Clear,0,2013-07-26 02:35:00
10:55 PM,65.3,62.8,92,30.08,10.0,Calm,Calm,-,N/A,,Clear,0,2013-07-26 02:55:00
11:15 PM,65.1,62.8,92,30.08,10.0,Calm,Calm,-,N/A,,Clear,0,2013-07-26 03:15:00
11:35 PM,64.8,62.6,93,30.08,10.0,Calm,Calm,-,N/A,,Clear,0,2013-07-26 03:35:00
11:55 PM,63.5,62.1,95,30.08,10.0,Calm,Calm,-,N/A,,Clear,0,2013-07-26 03:55:00